SERT 2

Last updated on Wed Nov 05 2025 00:02:13 GMT+0000 (Coordinated Universal Time)

1 04327U 70009A 25308.45158384 -.00000003 00000+0 52332-4 0 9990 2 04327 99.2582 253.4999 0005512 118.6583 350.0730 13.58710607762886
UTC large
Height (km)
Speed (km/s)
/
Latitude / Longitude
Inclination (degrees)
Orbital Period (minutes)
Azimuth
Elevation
Range (km)
Doppler Factor

Next 0 passes for location: London (51.5072 / 0.1276)

Sorry there are no passes over London.